This demonstration page uses our WeatherBlox Daily Observations layout. Learn more.

Left ArrowRight Arrow

Hourly Observations for April 3, 2017

Temp ( °F °C ) Dew Point ( °F °C ) Humidity (%) Winds ( mph kmh ) Pressure ( in mb ) Visibility ( mi km ) Precip ( " mm )
12:59 am 00:59 Mostly Cloudy 49 9.4 38 3.3 66 66 S 6 9 30.19 1022 10 16 0.00 0.00
1:59 am 01:59 Mostly Cloudy 48 8.9 37 2.8 66 66 S 7 11 30.18 1022 10 16 0.00 0.00
2:59 am 02:59 Mostly Clear 46 7.8 38 3.3 73 73 S 5 7 30.15 1021 10 16 0.00 0.00
3:59 am 03:59 Mostly Clear 46 7.8 39 3.9 77 77 S 7 11 30.14 1021 10 16 0.00 0.00
4:59 am 04:59 Partly Cloudy 46 7.8 39 3.9 77 77 S 6 9 30.14 1021 10 16 0.00 0.00
5:59 am 05:59 Partly Cloudy 46 7.8 39 3.9 77 77 SSW 6 9 30.14 1021 10 16 0.00 0.00
6:59 am 06:59 Partly Cloudy 45 7.2 39 3.9 80 80 SSW 5 7 30.16 1021 10 16 0.00 0.00
7:59 am 07:59 Partly Cloudy 50 10 40 4.4 68 68 SW 3 6 30.17 1022 10 16 0.00 0.00
8:59 am 08:59 Partly Cloudy 55 12.8 38 3.3 53 53 S 8 13 30.16 1021 10 16 0.00 0.00
9:59 am 09:59 Partly Cloudy 61 16.1 35 1.7 38 38 S 6 9 30.15 1021 10 16 0.00 0.00
10:59 am 10:59 Partly Cloudy 66 18.9 29 -1.7 25 25 S 9 15 30.13 1020 10 16 0.00 0.00
11:59 am 11:59 Partly Cloudy 68 20 29 -1.7 23 23 SSW 7 11 30.10 1019 10 16 0.00 0.00
12:59 pm 12:59 Mostly Cloudy 70 21.1 36 2.2 29 29 S 6 9 30.06 1018 10 16 0.00 0.00
1:59 pm 13:59 Mostly Cloudy 73 22.8 42 5.6 33 33 SSE 10 17 30.02 1017 10 16 0.00 0.00
2:59 pm 14:59 Mostly Cloudy 74 23.3 49 9.4 41 41 S 9 15 29.98 1015 10 16 0.00 0.00
3:59 pm 15:59 Mostly Cloudy 71 21.7 51 10.6 49 49 SSE 13 20 29.95 1014 10 16 0.00 0.00
4:59 pm 16:59 Cloudy 69 20.6 53 11.7 57 57 SE 9 15 29.94 1014 10 16 0.00 0.00
5:59 pm 17:59 Cloudy 68 20 54 12.2 61 61 SSE 13 20 29.90 1013 10 16 0.00 0.00
6:38 pm 18:38 Cloudy 68 20 55 12.8 63 63 SE 12 19 29.88 1012 10 16 0.00 0.00
6:59 pm 18:59 Cloudy 68 20 56 13.3 65 65 SSE 12 19 29.89 1012 10 16 0.00 0.00
7:59 pm 19:59 Cloudy 68 20 58 14.4 70 70 S 15 24 29.88 1012 10 16 0.00 0.00
8:59 pm 20:59 Cloudy with Light Rain 67 19.4 61 16.1 81 81 S 16 26 29.85 1011 9 14 0.01 0.25
9:59 pm 21:59 Cloudy 68 20 62 16.7 81 81 S 9 15 29.83 1010 10 16 0.00 0.03
10:59 pm 22:59 Cloudy 67 19.4 62 16.7 84 84 S 13 20 29.76 1008 10 16 0.00 0.00
11:59 pm 23:59 Cloudy 68 20 61 16.1 78 78 S 17 28 29.74 1007 10 16 0.00 0.00

Powered by AerisWeather